Location: *
(46.3500°N, 10.9000°E)
Time: 21:57:30
(UTC+00:00)

Explorer 7 - Pass Details

Date: 22 April 2021
Orbit: 484 x 677 km, 50.3° (Epoch: 05 May)

Event Time Altitude Azimuth Distance (km) Brightness Sun altitude
Rises 00:00:07 0° 293° (WNW) 2,809 - -30.6°
Reaches altitude 10° 00:02:21 10° 290° (WNW) 1,939 - -30.5°
Maximum altitude 00:06:45 62° 210° (SSW) 702 - -30.3°
Drops below altitude 10° 00:11:24 10° 130° (SE) 2,043 - -30.1°
Sets 00:13:48 0° 127° (SE) 2,974 - -30.0°
